This is the latest recevied weather packets stored in our database for station/object KM6YFK-13. If no packets are shown the sender has not sent any weather packets the latest 10 day(s).
| Time | Temp. | Humidity | Pressure | Rain* | Wind** | Luminosity | Snow |
|---|---|---|---|---|---|---|---|
| 1777676908 | 26.11° C | 73% | 1010.1 hPa | 0 mm | - | 45 W/m² | - |
| 1777676608 | 26.11° C | 71% | 1010.1 hPa | 0 mm | - | 55 W/m² | - |
| 1777676309 | 26.11° C | 69% | 1010.1 hPa | 0 mm | - | 86 W/m² | - |
| 1777676008 | 26.11° C | 68% | 1010.1 hPa | 0 mm | - | 69 W/m² | - |
| 1777675709 | 26.11° C | 67% | 1010.1 hPa | 0 mm | - | 80 W/m² | - |
| 1777675407 | 26.11° C | 67% | 1010.1 hPa | 0 mm | - | 87 W/m² | - |
| 1777675109 | 26.11° C | 66% | 1009.9 hPa | 0 mm | - | 92 W/m² | - |
| 1777674808 | 26.67° C | 66% | 1009.8 hPa | 0 mm | - | 91 W/m² | - |
| 1777674508 | 26.67° C | 65% | 1009.8 hPa | 0 mm | - | 103 W/m² | - |
| 1777674209 | 26.67° C | 67% | 1009.7 hPa | 0 mm | - | 133 W/m² | - |
| 1777673908 | 27.22° C | 66% | 1009.6 hPa | 0 mm | - | 144 W/m² | - |
| 1777673608 | 27.22° C | 64% | 1009.6 hPa | 0 mm | - | 336 W/m² | - |
| 1777673308 | 27.22° C | 63% | 1009.7 hPa | 0 mm | - | 302 W/m² | - |
| 1777673008 | 27.22° C | 63% | 1009.7 hPa | 0 mm | - | 237 W/m² | - |
| 1777672707 | 26.67° C | 66% | 1009.7 hPa | 0 mm | - | 326 W/m² | - |
| 1777672408 | 26.67° C | 65% | 1009.7 hPa | 0 mm | - | 152 W/m² | - |
| 1777672108 | 27.22° C | 65% | 1009.7 hPa | 0 mm | - | 200 W/m² | - |
| 1777671809 | 27.22° C | 64% | 1009.5 hPa | 0 mm | - | 365 W/m² | - |
| 1777671507 | 27.22° C | 65% | 1009.6 hPa | 0 mm | - | 397 W/m² | - |
| 1777671208 | 27.78° C | 62% | 1009.6 hPa | 0 mm | - | 414 W/m² | - |
| 1777670908 | 27.78° C | 63% | 1009.6 hPa | 0 mm | - | 493 W/m² | - |
| 1777670608 | 27.22° C | 65% | 1009.5 hPa | 0 mm | - | 461 W/m² | - |
| 1777670308 | 27.22° C | 65% | 1009.5 hPa | 0 mm | - | 507 W/m² | - |
| 1777670008 | 27.22° C | 65% | 1009.5 hPa | 0 mm | - | 331 W/m² | - |
| 1777669709 | 27.22° C | 65% | 1009.4 hPa | 0 mm | - | 251 W/m² | - |
* Rain latest hour (hover to see other rain measurements)
** Current wind speed in m/s (hover to see current wind gust speed)